Year,Month,Day,Hour,Minute,Value (Times are PST for temperature in C)
2010,08,27,00,00,14.60
2010,08,27,00,01,14.60
2010,08,27,00,02,14.50
2010,08,27,00,03,14.50
2010,08,27,00,04,14.50
2010,08,27,00,05,14.50
2010,08,27,00,06,14.40
2010,08,27,00,07,14.40
2010,08,27,00,08,14.40
2010,08,27,00,09,14.40
2010,08,27,00,10,14.40
2010,08,27,00,11,14.40
2010,08,27,00,12,14.40
2010,08,27,00,13,14.30
2010,08,27,00,14,14.30
2010,08,27,00,15,14.30
2010,08,27,00,16,14.30
2010,08,27,00,17,14.30
2010,08,27,00,18,14.30
2010,08,27,00,19,14.30
2010,08,27,00,20,14.30
2010,08,27,00,21,14.30
2010,08,27,00,22,14.20
2010,08,27,00,23,14.20
2010,08,27,00,24,14.20
2010,08,27,00,25,14.20
2010,08,27,00,26,14.20
2010,08,27,00,27,14.20
2010,08,27,00,28,14.20
2010,08,27,00,29,14.20
2010,08,27,00,30,14.20
2010,08,27,00,31,14.20
2010,08,27,00,32,14.10
2010,08,27,00,33,14.10
2010,08,27,00,34,14.10
2010,08,27,00,35,14.10
2010,08,27,00,36,14.10
2010,08,27,00,37,14.10
2010,08,27,00,38,14.10
2010,08,27,00,39,14.10
2010,08,27,00,40,14.10
2010,08,27,00,41,14.00
2010,08,27,00,42,14.00
2010,08,27,00,43,14.00
2010,08,27,00,44,13.90
2010,08,27,00,45,13.90
2010,08,27,00,46,13.90
2010,08,27,00,47,13.90
2010,08,27,00,48,13.90
2010,08,27,00,49,13.80
2010,08,27,00,50,13.80
2010,08,27,00,51,13.80
2010,08,27,00,52,13.80
2010,08,27,00,53,13.80
2010,08,27,00,54,13.70
2010,08,27,00,55,13.70
2010,08,27,00,56,13.60
2010,08,27,00,57,13.60
2010,08,27,00,58,13.60
2010,08,27,00,59,13.50
2010,08,27,01,00,13.50
2010,08,27,01,01,13.40
2010,08,27,01,02,13.40
2010,08,27,01,03,13.40
2010,08,27,01,04,13.30
2010,08,27,01,05,13.30
2010,08,27,01,06,13.30
2010,08,27,01,07,13.30
2010,08,27,01,08,13.20
2010,08,27,01,09,13.20
2010,08,27,01,10,13.20
2010,08,27,01,11,13.10
2010,08,27,01,12,13.10
2010,08,27,01,13,13.10
2010,08,27,01,14,13.10
2010,08,27,01,15,13.10
2010,08,27,01,16,13.00
2010,08,27,01,17,13.00
2010,08,27,01,18,13.00
2010,08,27,01,19,12.90
2010,08,27,01,20,12.90
2010,08,27,01,21,12.90
2010,08,27,01,22,12.90
2010,08,27,01,23,12.80
2010,08,27,01,24,12.80
2010,08,27,01,25,12.80
2010,08,27,01,26,12.80
2010,08,27,01,27,12.80
2010,08,27,01,28,12.80
2010,08,27,01,29,12.70
2010,08,27,01,30,12.70
2010,08,27,01,31,12.70
2010,08,27,01,32,12.60
2010,08,27,01,33,12.60
2010,08,27,01,34,12.60
2010,08,27,01,35,12.60
2010,08,27,01,36,12.60
2010,08,27,01,37,12.50
2010,08,27,01,38,12.50
2010,08,27,01,39,12.50
2010,08,27,01,40,12.40
2010,08,27,01,41,12.40
2010,08,27,01,42,12.40
2010,08,27,01,43,12.40
2010,08,27,01,44,12.30
2010,08,27,01,45,12.30
2010,08,27,01,46,12.30
2010,08,27,01,47,12.30
2010,08,27,01,48,12.30
2010,08,27,01,49,12.20
2010,08,27,01,50,12.20
2010,08,27,01,51,12.20
2010,08,27,01,52,12.20
2010,08,27,01,53,12.20
2010,08,27,01,54,12.10
2010,08,27,01,55,12.10
2010,08,27,01,56,12.10
2010,08,27,01,57,12.00
2010,08,27,01,58,12.00
2010,08,27,01,59,12.00
2010,08,27,02,00,12.00
2010,08,27,02,01,11.90
2010,08,27,02,02,11.90
2010,08,27,02,03,11.90
2010,08,27,02,04,11.80
2010,08,27,02,05,11.80
2010,08,27,02,06,11.80
2010,08,27,02,07,11.80
2010,08,27,02,08,11.80
2010,08,27,02,09,11.70
2010,08,27,02,10,11.70
2010,08,27,02,11,11.70
2010,08,27,02,12,11.70
2010,08,27,02,13,11.70
2010,08,27,02,14,11.60
2010,08,27,02,15,11.60
2010,08,27,02,16,11.60
2010,08,27,02,17,11.60
2010,08,27,02,18,11.60
2010,08,27,02,19,11.60
2010,08,27,02,20,11.50
2010,08,27,02,21,11.50
2010,08,27,02,22,11.50
2010,08,27,02,23,11.40
2010,08,27,02,24,11.40
2010,08,27,02,25,11.40
2010,08,27,02,26,11.40
2010,08,27,02,27,11.40
2010,08,27,02,28,11.30
2010,08,27,02,29,11.30
2010,08,27,02,30,11.30
2010,08,27,02,31,11.30
2010,08,27,02,32,11.30
2010,08,27,02,33,11.30
2010,08,27,02,34,11.30
2010,08,27,02,35,11.30
2010,08,27,02,36,11.20
2010,08,27,02,37,11.20
2010,08,27,02,38,11.20
2010,08,27,02,39,11.20
2010,08,27,02,40,11.20
2010,08,27,02,41,11.20
2010,08,27,02,42,11.20
2010,08,27,02,43,11.20
2010,08,27,02,44,11.20
2010,08,27,02,45,11.20
2010,08,27,02,46,11.20
2010,08,27,02,47,11.20
2010,08,27,02,48,11.20
2010,08,27,02,49,11.20
2010,08,27,02,50,11.20
2010,08,27,02,51,11.10
2010,08,27,02,52,11.10
2010,08,27,02,53,11.10
2010,08,27,02,54,11.10
2010,08,27,02,55,11.10
2010,08,27,02,56,11.00
2010,08,27,02,57,11.00
2010,08,27,02,58,11.00
2010,08,27,02,59,11.00
2010,08,27,03,00,10.90
2010,08,27,03,06,10.80
2010,08,27,03,07,10.80
2010,08,27,03,08,10.80
2010,08,27,03,09,10.80
2010,08,27,03,10,10.80
2010,08,27,03,11,10.80
2010,08,27,03,12,10.70
2010,08,27,03,13,10.70
2010,08,27,03,14,10.70
2010,08,27,03,15,10.70
2010,08,27,03,16,10.70
2010,08,27,03,17,10.70
2010,08,27,03,18,10.70
2010,08,27,03,19,10.70
2010,08,27,03,20,10.60
2010,08,27,03,21,10.60
2010,08,27,03,22,10.60
2010,08,27,03,23,10.60
2010,08,27,03,24,10.60
2010,08,27,03,25,10.60
2010,08,27,03,26,10.60
2010,08,27,03,27,10.60
2010,08,27,03,28,10.60
2010,08,27,03,29,10.60
2010,08,27,03,30,10.60
2010,08,27,03,31,10.60
2010,08,27,03,32,10.60
2010,08,27,03,33,10.60
2010,08,27,03,34,10.60
2010,08,27,03,35,10.60
2010,08,27,03,36,10.60
2010,08,27,03,37,10.60
2010,08,27,03,38,10.60
2010,08,27,03,39,10.60
2010,08,27,03,40,10.60
2010,08,27,03,41,10.60
2010,08,27,03,42,10.70
2010,08,27,03,43,10.70
2010,08,27,03,44,10.70
2010,08,27,03,45,10.70
2010,08,27,03,46,10.70
2010,08,27,03,47,10.70
2010,08,27,03,48,10.70
2010,08,27,03,49,10.70
2010,08,27,03,50,10.70
2010,08,27,03,51,10.70
2010,08,27,03,52,10.70
2010,08,27,03,53,10.70
2010,08,27,03,54,10.70
2010,08,27,03,55,10.70
2010,08,27,03,56,10.70
2010,08,27,03,57,10.70
2010,08,27,03,58,10.70
2010,08,27,03,59,10.70
2010,08,27,04,00,10.70
2010,08,27,04,01,10.70
2010,08,27,04,02,10.60
2010,08,27,04,03,10.60
2010,08,27,04,04,10.70
2010,08,27,04,05,10.60
2010,08,27,04,06,10.60
2010,08,27,04,07,10.60
2010,08,27,04,08,10.60
2010,08,27,04,09,10.60
2010,08,27,04,10,10.60
2010,08,27,04,11,10.60
2010,08,27,04,12,10.60
2010,08,27,04,13,10.60
2010,08,27,04,14,10.60
2010,08,27,04,15,10.60
2010,08,27,04,16,10.60
2010,08,27,04,17,10.60
2010,08,27,04,18,10.60
2010,08,27,04,19,10.60
2010,08,27,04,20,10.60
2010,08,27,04,21,10.60
2010,08,27,04,22,10.60
2010,08,27,04,23,10.60
2010,08,27,04,24,10.60
2010,08,27,04,25,10.60
2010,08,27,04,26,10.60
2010,08,27,04,27,10.60
2010,08,27,04,28,10.60
2010,08,27,04,29,10.60
2010,08,27,04,30,10.60
2010,08,27,04,31,10.60
2010,08,27,04,32,10.60
2010,08,27,04,33,10.50
2010,08,27,04,34,10.50
2010,08,27,04,35,10.50
2010,08,27,04,36,10.50
2010,08,27,04,37,10.50
2010,08,27,04,38,10.50
2010,08,27,04,39,10.50
2010,08,27,04,40,10.50
2010,08,27,04,41,10.50
2010,08,27,04,42,10.50
2010,08,27,04,43,10.50
2010,08,27,04,44,10.50
2010,08,27,04,45,10.50
2010,08,27,04,46,10.50
2010,08,27,04,47,10.50
2010,08,27,04,48,10.50
2010,08,27,04,49,10.50
2010,08,27,04,50,10.50
2010,08,27,04,51,10.60
2010,08,27,04,52,10.50
2010,08,27,04,53,10.60
2010,08,27,04,54,10.50
2010,08,27,04,55,10.60
2010,08,27,04,56,10.60
2010,08,27,04,57,10.60
2010,08,27,04,58,10.60
2010,08,27,04,59,10.60
2010,08,27,05,00,10.60
2010,08,27,05,01,10.60
2010,08,27,05,02,10.60
2010,08,27,05,03,10.60
2010,08,27,05,04,10.70
2010,08,27,05,05,10.70
2010,08,27,05,06,10.70
2010,08,27,05,07,10.70
2010,08,27,05,08,10.70
2010,08,27,05,09,10.70
2010,08,27,05,10,10.70
2010,08,27,05,11,10.70
2010,08,27,05,12,10.70
2010,08,27,05,13,10.70
2010,08,27,05,14,10.70
2010,08,27,05,15,10.70
2010,08,27,05,16,10.70
2010,08,27,05,17,10.70
2010,08,27,05,18,10.70
2010,08,27,05,19,10.70
2010,08,27,05,20,10.70
2010,08,27,05,21,10.70
2010,08,27,05,22,10.70
2010,08,27,05,23,10.70
2010,08,27,05,24,10.70
2010,08,27,05,25,10.70
2010,08,27,05,26,10.70
2010,08,27,05,27,10.70
2010,08,27,05,28,10.70
2010,08,27,05,29,10.70
2010,08,27,05,30,10.70
2010,08,27,05,31,10.70
2010,08,27,05,32,10.70
2010,08,27,05,33,10.70
2010,08,27,05,34,10.70
2010,08,27,05,35,10.70
2010,08,27,05,36,10.70
2010,08,27,05,37,10.70
2010,08,27,05,38,10.70
2010,08,27,05,39,10.80
2010,08,27,05,40,10.80
2010,08,27,05,41,10.80
2010,08,27,05,42,10.80
2010,08,27,05,43,10.80
2010,08,27,05,44,10.80
2010,08,27,05,45,10.80
2010,08,27,05,46,10.80
2010,08,27,05,47,10.80
2010,08,27,05,48,10.80
2010,08,27,05,49,10.80
2010,08,27,05,50,10.80
2010,08,27,05,51,10.80
2010,08,27,05,52,10.80
2010,08,27,05,53,10.80
2010,08,27,05,54,10.90
2010,08,27,05,55,10.90
2010,08,27,05,56,10.90
2010,08,27,05,57,10.90
2010,08,27,05,58,10.90
2010,08,27,05,59,10.90
2010,08,27,06,00,10.90
2010,08,27,06,01,10.90
2010,08,27,06,02,10.90
2010,08,27,06,03,11.00
2010,08,27,06,04,11.00
2010,08,27,06,05,11.00
2010,08,27,06,06,11.00
2010,08,27,06,07,11.00
2010,08,27,06,08,11.00
2010,08,27,06,09,11.00
2010,08,27,06,10,11.00
2010,08,27,06,11,11.00
2010,08,27,06,12,11.00
2010,08,27,06,13,11.00
2010,08,27,06,14,11.00
2010,08,27,06,15,11.00
2010,08,27,06,16,11.00
2010,08,27,06,17,11.00
2010,08,27,06,18,11.00
2010,08,27,06,19,11.00
2010,08,27,06,20,11.00
2010,08,27,06,21,11.10
2010,08,27,06,22,11.10
2010,08,27,06,23,11.10
2010,08,27,06,24,11.10
2010,08,27,06,25,11.10
2010,08,27,06,26,11.10
2010,08,27,06,27,11.10
2010,08,27,06,28,11.10
2010,08,27,06,29,11.10
2010,08,27,06,30,11.10
2010,08,27,06,31,11.20
2010,08,27,06,32,11.20
2010,08,27,06,33,11.20
2010,08,27,06,34,11.20
2010,08,27,06,35,11.20
2010,08,27,06,36,11.20
2010,08,27,06,37,11.20
2010,08,27,06,38,11.20
2010,08,27,06,39,11.20
2010,08,27,06,40,11.20
2010,08,27,06,41,11.20
2010,08,27,06,42,11.20
2010,08,27,06,43,11.20
2010,08,27,06,44,11.30
2010,08,27,06,45,11.30
2010,08,27,06,46,11.30
2010,08,27,06,47,11.30
2010,08,27,06,48,11.30
2010,08,27,06,49,11.30
2010,08,27,06,50,11.30
2010,08,27,06,51,11.30
2010,08,27,06,52,11.30
2010,08,27,06,53,11.30
2010,08,27,06,54,11.30
2010,08,27,06,55,11.30
2010,08,27,06,56,11.30
2010,08,27,06,57,11.30
2010,08,27,06,58,11.30
2010,08,27,06,59,11.30
2010,08,27,07,00,11.30
2010,08,27,07,01,11.40
2010,08,27,07,02,11.40
2010,08,27,07,03,11.40
2010,08,27,07,04,11.40
2010,08,27,07,05,11.40
2010,08,27,07,06,11.40
2010,08,27,07,07,11.40
2010,08,27,07,08,11.40
2010,08,27,07,09,11.40
2010,08,27,07,10,11.40
2010,08,27,07,11,11.40
2010,08,27,07,12,11.40
2010,08,27,07,13,11.50
2010,08,27,07,14,11.50
2010,08,27,07,15,11.50
2010,08,27,07,16,11.50
2010,08,27,07,17,11.50
2010,08,27,07,18,11.60
2010,08,27,07,19,11.60
2010,08,27,07,20,11.60
2010,08,27,07,21,11.60
2010,08,27,07,22,11.70
2010,08,27,07,23,11.70
2010,08,27,07,24,11.70
2010,08,27,07,25,11.70
2010,08,27,07,26,11.70
2010,08,27,07,27,11.80
2010,08,27,07,28,11.80
2010,08,27,07,29,11.80
2010,08,27,07,30,11.90
2010,08,27,07,31,11.90
2010,08,27,07,32,11.90
2010,08,27,07,33,11.90
2010,08,27,07,34,12.00
2010,08,27,07,35,12.00
2010,08,27,07,36,12.00
2010,08,27,07,37,12.10
2010,08,27,07,38,12.10
2010,08,27,07,39,12.10
2010,08,27,07,40,12.10
2010,08,27,07,41,12.10
2010,08,27,07,42,12.20
2010,08,27,07,43,12.20
2010,08,27,07,44,12.20
2010,08,27,07,45,12.20
2010,08,27,07,46,12.20
2010,08,27,07,47,12.30
2010,08,27,07,48,12.30
2010,08,27,07,49,12.30
2010,08,27,07,50,12.30
2010,08,27,07,51,12.30
2010,08,27,07,52,12.40
2010,08,27,07,53,12.40
2010,08,27,07,54,12.40
2010,08,27,07,55,12.40
2010,08,27,07,56,12.50
2010,08,27,07,57,12.50
2010,08,27,07,58,12.60
2010,08,27,07,59,12.60
2010,08,27,08,00,12.60
2010,08,27,08,01,12.60
2010,08,27,08,02,12.60
2010,08,27,08,03,12.70
2010,08,27,08,04,12.70
2010,08,27,08,05,12.70
2010,08,27,08,06,12.70
2010,08,27,08,07,12.80
2010,08,27,08,08,12.80
2010,08,27,08,09,12.80
2010,08,27,08,10,12.80
2010,08,27,08,11,12.80
2010,08,27,08,12,12.90
2010,08,27,08,13,12.90
2010,08,27,08,14,12.90
2010,08,27,08,15,13.00
2010,08,27,08,16,13.00
2010,08,27,08,17,13.00
2010,08,27,08,18,13.10
2010,08,27,08,19,13.10
2010,08,27,08,20,13.10
2010,08,27,08,21,13.20
2010,08,27,08,22,13.20
2010,08,27,08,23,13.20
2010,08,27,08,24,13.30
2010,08,27,08,25,13.30
2010,08,27,08,26,13.30
2010,08,27,08,27,13.40
2010,08,27,08,28,13.40
2010,08,27,08,29,13.50
2010,08,27,08,30,13.50
2010,08,27,08,31,13.60
2010,08,27,08,32,13.60
2010,08,27,08,33,13.70
2010,08,27,08,34,13.70
2010,08,27,08,35,13.80
2010,08,27,08,36,13.80
2010,08,27,08,37,13.90
2010,08,27,08,38,13.90
2010,08,27,08,39,14.00
2010,08,27,08,40,14.00
2010,08,27,08,41,14.10
2010,08,27,08,42,14.10
2010,08,27,08,43,14.10
2010,08,27,08,44,14.20
2010,08,27,08,45,14.20
2010,08,27,08,46,14.20
2010,08,27,08,47,14.20
2010,08,27,08,48,14.30
2010,08,27,08,49,14.30
2010,08,27,08,50,14.30
2010,08,27,08,51,14.30
2010,08,27,08,52,14.40
2010,08,27,08,53,14.40
2010,08,27,08,54,14.50
2010,08,27,08,55,14.50
2010,08,27,08,56,14.60
2010,08,27,08,57,14.60
2010,08,27,08,58,14.70
2010,08,27,08,59,14.70
2010,08,27,09,00,14.70
2010,08,27,09,01,14.80
2010,08,27,09,02,14.80
2010,08,27,09,03,14.90
2010,08,27,09,04,14.90
2010,08,27,09,05,14.90
2010,08,27,09,06,14.90
2010,08,27,09,07,14.90
2010,08,27,09,08,15.00
2010,08,27,09,09,15.00
2010,08,27,09,10,15.00
2010,08,27,09,11,15.00
2010,08,27,09,12,15.00
2010,08,27,09,13,15.00
2010,08,27,09,14,15.00
2010,08,27,09,15,15.10
2010,08,27,09,16,15.10
2010,08,27,09,17,15.10
2010,08,27,09,18,15.10
2010,08,27,09,19,15.10
2010,08,27,09,20,15.10
2010,08,27,09,21,15.10
2010,08,27,09,22,15.10
2010,08,27,09,23,15.10
2010,08,27,09,24,15.10
2010,08,27,09,25,15.20
2010,08,27,09,26,15.20
2010,08,27,09,27,15.20
2010,08,27,09,28,15.30
2010,08,27,09,29,15.30
2010,08,27,09,30,15.30
2010,08,27,09,31,15.30
2010,08,27,09,32,15.30
2010,08,27,09,33,15.30
2010,08,27,09,34,15.30
2010,08,27,09,35,15.30
2010,08,27,09,36,15.30
2010,08,27,09,37,15.30
2010,08,27,09,38,15.30
2010,08,27,09,39,15.30
2010,08,27,09,40,15.30
2010,08,27,09,41,15.30
2010,08,27,09,42,15.30
2010,08,27,09,43,15.30
2010,08,27,09,44,15.30
2010,08,27,09,45,15.30
2010,08,27,09,46,15.30
2010,08,27,09,47,15.30
2010,08,27,09,48,15.30
2010,08,27,09,49,15.30
2010,08,27,09,50,15.30
2010,08,27,09,51,15.30
2010,08,27,09,52,15.30
2010,08,27,09,53,15.30
2010,08,27,09,54,15.40
2010,08,27,09,55,15.40
2010,08,27,09,56,15.40
2010,08,27,09,57,15.40
2010,08,27,09,58,15.40
2010,08,27,09,59,15.50
2010,08,27,10,00,15.50
2010,08,27,10,01,15.50
2010,08,27,10,02,15.50
2010,08,27,10,03,15.60
2010,08,27,10,04,15.60
2010,08,27,10,05,15.60
2010,08,27,10,06,15.60
2010,08,27,10,07,15.60
2010,08,27,10,08,15.60
2010,08,27,10,09,15.60
2010,08,27,10,10,15.60
2010,08,27,10,11,15.60
2010,08,27,10,12,15.60
2010,08,27,10,13,15.60
2010,08,27,10,14,15.60
2010,08,27,10,15,15.60
2010,08,27,10,16,15.50
2010,08,27,10,17,15.50
2010,08,27,10,18,15.60
2010,08,27,10,19,15.60
2010,08,27,10,20,15.60
2010,08,27,10,21,15.60
2010,08,27,10,22,15.60
2010,08,27,10,23,15.60
2010,08,27,10,24,15.60
2010,08,27,10,25,15.60
2010,08,27,10,26,15.60
2010,08,27,10,27,15.60
2010,08,27,10,28,15.70
2010,08,27,10,29,15.70
2010,08,27,10,30,15.70
2010,08,27,10,31,15.70
2010,08,27,10,32,15.70
2010,08,27,10,33,15.70
2010,08,27,10,34,15.80
2010,08,27,10,35,15.80
2010,08,27,10,36,15.80
2010,08,27,10,37,15.90
2010,08,27,10,38,15.90
2010,08,27,10,39,16.00
2010,08,27,10,40,16.10
2010,08,27,10,41,16.10
2010,08,27,10,42,16.10
2010,08,27,10,43,16.20
2010,08,27,10,44,16.20
2010,08,27,10,45,16.30
2010,08,27,10,46,16.30
2010,08,27,10,47,16.30
2010,08,27,10,48,16.40
2010,08,27,10,49,16.40
2010,08,27,10,50,16.50
2010,08,27,10,51,16.50
2010,08,27,10,52,16.60
2010,08,27,10,53,16.60
2010,08,27,10,54,16.70
2010,08,27,10,55,16.70
2010,08,27,10,56,16.70
2010,08,27,10,57,16.80
2010,08,27,10,58,16.80
2010,08,27,10,59,16.80
2010,08,27,11,00,16.80
2010,08,27,11,01,16.80
2010,08,27,11,02,16.80
2010,08,27,11,03,16.80
2010,08,27,11,04,16.80
2010,08,27,11,05,16.70
2010,08,27,11,06,16.70
2010,08,27,11,07,16.70
2010,08,27,11,08,16.70
2010,08,27,11,09,16.80
2010,08,27,11,10,16.80
2010,08,27,11,11,16.80
2010,08,27,11,12,16.80
2010,08,27,11,13,16.80
2010,08,27,11,14,16.90
2010,08,27,11,15,16.90
2010,08,27,11,16,16.90
2010,08,27,11,17,17.00
2010,08,27,11,18,17.00
2010,08,27,11,19,17.10
2010,08,27,11,20,17.10
2010,08,27,11,21,17.10
2010,08,27,11,22,17.20
2010,08,27,11,23,17.10
2010,08,27,11,24,17.10
2010,08,27,11,25,17.00
2010,08,27,11,26,16.90
2010,08,27,11,27,16.90
2010,08,27,11,28,16.90
2010,08,27,11,29,17.00
2010,08,27,11,30,17.00
2010,08,27,11,31,17.10
2010,08,27,11,32,17.10
2010,08,27,11,33,17.10
2010,08,27,11,34,17.10
2010,08,27,11,35,17.10
2010,08,27,11,36,17.10
2010,08,27,11,37,17.10
2010,08,27,11,38,17.20
2010,08,27,11,39,17.20
2010,08,27,11,40,17.30
2010,08,27,11,41,17.40
2010,08,27,11,42,17.50
2010,08,27,11,43,17.60
2010,08,27,11,44,17.70
2010,08,27,11,45,17.80
2010,08,27,11,46,17.80
2010,08,27,11,47,17.90
2010,08,27,11,48,18.00
2010,08,27,11,49,18.10
2010,08,27,11,50,18.10
2010,08,27,11,51,18.20
2010,08,27,11,52,18.30
2010,08,27,11,53,18.30
2010,08,27,11,54,18.40
2010,08,27,11,55,18.40
2010,08,27,11,56,18.40
2010,08,27,11,57,18.40
2010,08,27,11,58,18.50
2010,08,27,11,59,18.50
2010,08,27,12,00,18.60
2010,08,27,12,01,18.80
2010,08,27,12,02,18.90
2010,08,27,12,03,19.10
2010,08,27,12,04,19.20
2010,08,27,12,05,19.20
2010,08,27,12,06,19.10
2010,08,27,12,07,19.10
2010,08,27,12,08,19.10
2010,08,27,12,09,19.10
2010,08,27,12,10,19.10
2010,08,27,12,11,19.10
2010,08,27,12,12,19.20
2010,08,27,12,13,19.10
2010,08,27,12,14,19.10
2010,08,27,12,15,19.00
2010,08,27,12,16,18.90
2010,08,27,12,17,18.80
2010,08,27,12,18,18.70
2010,08,27,12,19,18.70
2010,08,27,12,20,18.70
2010,08,27,12,21,18.70
2010,08,27,12,22,18.70
2010,08,27,12,23,18.70
2010,08,27,12,24,18.70
2010,08,27,12,25,18.70
2010,08,27,12,26,18.70
2010,08,27,12,27,18.70
2010,08,27,12,28,18.70
2010,08,27,12,29,18.60
2010,08,27,12,30,18.60
2010,08,27,12,31,18.50
2010,08,27,12,32,18.40
2010,08,27,12,33,18.40
2010,08,27,12,34,18.30
2010,08,27,12,35,18.30
2010,08,27,12,36,18.30
2010,08,27,12,37,18.30
2010,08,27,12,38,18.30
2010,08,27,12,39,18.30
2010,08,27,12,40,18.30
2010,08,27,12,41,18.30
2010,08,27,12,42,18.40
2010,08,27,12,43,18.40
2010,08,27,12,44,18.50
2010,08,27,12,45,18.50
2010,08,27,12,46,18.50
2010,08,27,12,47,18.50
2010,08,27,12,48,18.40
2010,08,27,12,49,18.40
2010,08,27,12,50,18.40
2010,08,27,12,51,18.40
2010,08,27,12,52,18.40
2010,08,27,12,53,18.40
2010,08,27,12,54,18.40
2010,08,27,12,55,18.50
2010,08,27,12,56,18.50
2010,08,27,12,57,18.60
2010,08,27,12,58,18.70
2010,08,27,12,59,18.80
2010,08,27,13,00,18.90
2010,08,27,13,01,19.00
2010,08,27,13,02,19.00
2010,08,27,13,03,19.10
2010,08,27,13,04,19.10
2010,08,27,13,05,19.20
2010,08,27,13,06,19.30
2010,08,27,13,07,19.50
2010,08,27,13,08,19.60
2010,08,27,13,09,19.70
2010,08,27,13,10,19.80
2010,08,27,13,11,19.70
2010,08,27,13,12,19.80
2010,08,27,13,13,19.80
2010,08,27,13,14,19.90
2010,08,27,13,15,20.00
2010,08,27,13,16,20.10
2010,08,27,13,17,20.10
2010,08,27,13,18,20.00
2010,08,27,13,19,20.00
2010,08,27,13,20,20.00
2010,08,27,13,21,19.90
2010,08,27,13,22,19.90
2010,08,27,13,23,20.00
2010,08,27,13,24,20.10
2010,08,27,13,25,20.10
2010,08,27,13,26,20.10
2010,08,27,13,27,20.10
2010,08,27,13,28,20.10
2010,08,27,13,29,20.20
2010,08,27,13,30,20.30
2010,08,27,13,31,20.30
2010,08,27,13,32,20.40
2010,08,27,13,33,20.40
2010,08,27,13,34,20.50
2010,08,27,13,35,20.50
2010,08,27,13,36,20.50
2010,08,27,13,37,20.60
2010,08,27,13,38,20.60
2010,08,27,13,39,20.60
2010,08,27,13,40,20.70
2010,08,27,13,41,20.60
2010,08,27,13,42,20.60
2010,08,27,13,43,20.50
2010,08,27,13,44,20.40
2010,08,27,13,45,20.50
2010,08,27,13,46,20.50
2010,08,27,13,47,20.50
2010,08,27,13,48,20.60
2010,08,27,13,49,20.70
2010,08,27,13,50,20.80
2010,08,27,13,51,20.90
2010,08,27,13,52,21.00
2010,08,27,13,53,21.10
2010,08,27,13,54,21.10
2010,08,27,13,55,21.10
2010,08,27,13,56,21.00
2010,08,27,13,57,21.00
2010,08,27,13,58,20.90
2010,08,27,13,59,20.90
2010,08,27,14,00,20.90
2010,08,27,14,01,20.90
2010,08,27,14,02,21.00
2010,08,27,14,03,21.00
2010,08,27,14,04,21.00
2010,08,27,14,05,21.10
2010,08,27,14,06,21.20
2010,08,27,14,07,21.20
2010,08,27,14,08,21.20
2010,08,27,14,09,21.20
2010,08,27,14,10,21.10
2010,08,27,14,11,21.00
2010,08,27,14,12,20.90
2010,08,27,14,13,20.80
2010,08,27,14,14,20.70
2010,08,27,14,15,20.60
2010,08,27,14,16,20.50
2010,08,27,14,17,20.40
2010,08,27,14,18,20.30
2010,08,27,14,19,20.30
2010,08,27,14,20,20.20
2010,08,27,14,21,20.10
2010,08,27,14,22,20.00
2010,08,27,14,23,19.90
2010,08,27,14,24,19.80
2010,08,27,14,25,19.80
2010,08,27,14,26,19.80
2010,08,27,14,27,19.80
2010,08,27,14,28,19.80
2010,08,27,14,29,19.80
2010,08,27,14,30,19.70
2010,08,27,14,31,19.70
2010,08,27,14,32,19.60
2010,08,27,14,33,19.50
2010,08,27,14,34,19.40
2010,08,27,14,35,19.30
2010,08,27,14,36,19.30
2010,08,27,14,37,19.20
2010,08,27,14,38,19.20
2010,08,27,14,39,19.10
2010,08,27,14,40,19.10
2010,08,27,14,41,19.00
2010,08,27,14,42,19.00
2010,08,27,14,43,18.90
2010,08,27,14,44,18.90
2010,08,27,14,45,18.90
2010,08,27,14,46,18.90
2010,08,27,14,47,18.90
2010,08,27,14,48,18.90
2010,08,27,14,49,18.80
2010,08,27,14,50,18.70
2010,08,27,14,51,18.70
2010,08,27,14,52,18.70
2010,08,27,14,53,18.70
2010,08,27,14,54,18.70
2010,08,27,14,55,18.70
2010,08,27,14,56,18.70
2010,08,27,14,57,18.80
2010,08,27,14,58,18.90
2010,08,27,14,59,19.10
2010,08,27,15,00,19.20
2010,08,27,15,01,19.30
2010,08,27,15,02,19.30
2010,08,27,15,03,19.30
2010,08,27,15,04,19.10
2010,08,27,15,05,19.10
2010,08,27,15,06,19.10
2010,08,27,15,07,19.10
2010,08,27,15,08,19.10
2010,08,27,15,09,19.10
2010,08,27,15,10,19.10
2010,08,27,15,11,19.20
2010,08,27,15,12,19.30
2010,08,27,15,13,19.30
2010,08,27,15,14,19.40
2010,08,27,15,15,19.40
2010,08,27,15,16,19.50
2010,08,27,15,17,19.50
2010,08,27,15,18,19.60
2010,08,27,15,19,19.60
2010,08,27,15,20,19.50
2010,08,27,15,21,19.40
2010,08,27,15,22,19.40
2010,08,27,15,23,19.40
2010,08,27,15,24,19.50
2010,08,27,15,25,19.60
2010,08,27,15,26,19.60
2010,08,27,15,27,19.60
2010,08,27,15,28,19.60
2010,08,27,15,29,19.60
2010,08,27,15,30,19.60
2010,08,27,15,31,19.50
2010,08,27,15,32,19.50
2010,08,27,15,33,19.40
2010,08,27,15,34,19.40
2010,08,27,15,35,19.30
2010,08,27,15,36,19.30
2010,08,27,15,37,19.30
2010,08,27,15,38,19.30
2010,08,27,15,39,19.30
2010,08,27,15,40,19.20
2010,08,27,15,41,19.10
2010,08,27,15,42,18.90
2010,08,27,15,43,18.90
2010,08,27,15,44,18.80
2010,08,27,15,45,18.80
2010,08,27,15,46,18.80
2010,08,27,15,47,18.80
2010,08,27,15,48,18.90
2010,08,27,15,49,18.90
2010,08,27,15,50,18.90
2010,08,27,15,51,18.90
2010,08,27,15,52,18.90
2010,08,27,15,53,18.80
2010,08,27,15,54,18.70
2010,08,27,15,55,18.60
2010,08,27,15,56,18.40
2010,08,27,15,57,18.30
2010,08,27,15,58,18.20
2010,08,27,15,59,18.00
2010,08,27,16,00,17.90
2010,08,27,16,01,17.80
2010,08,27,16,02,17.70
2010,08,27,16,03,17.60
2010,08,27,16,04,17.50
2010,08,27,16,05,17.50
2010,08,27,16,06,17.40
2010,08,27,16,07,17.40
2010,08,27,16,08,17.40
2010,08,27,16,09,17.40
2010,08,27,16,10,17.40
2010,08,27,16,11,17.30
2010,08,27,16,12,17.40
2010,08,27,16,13,17.40
2010,08,27,16,14,17.50
2010,08,27,16,15,17.60
2010,08,27,16,16,17.70
2010,08,27,16,17,17.80
2010,08,27,16,18,17.80
2010,08,27,16,19,17.90
2010,08,27,16,20,17.90
2010,08,27,16,21,18.00
2010,08,27,16,22,18.00
2010,08,27,16,23,18.10
2010,08,27,16,24,18.20
2010,08,27,16,25,18.20
2010,08,27,16,26,18.20
2010,08,27,16,27,18.20
2010,08,27,16,28,18.20
2010,08,27,16,29,18.20
2010,08,27,16,30,18.20
2010,08,27,16,31,18.30
2010,08,27,16,32,18.30
2010,08,27,16,33,18.40
2010,08,27,16,34,18.40
2010,08,27,16,35,18.30
2010,08,27,16,36,18.20
2010,08,27,16,37,18.20
2010,08,27,16,38,18.10
2010,08,27,16,39,18.10
2010,08,27,16,40,18.20
2010,08,27,16,41,18.20
2010,08,27,16,42,18.20
2010,08,27,16,43,18.30
2010,08,27,16,44,18.30
2010,08,27,16,45,18.40
2010,08,27,16,46,18.40
2010,08,27,16,47,18.50
2010,08,27,16,48,18.50
2010,08,27,16,49,18.40
2010,08,27,16,50,18.30
2010,08,27,16,51,18.20
2010,08,27,16,52,18.20
2010,08,27,16,53,18.10
2010,08,27,16,54,18.10
2010,08,27,16,55,18.10
2010,08,27,16,56,18.10
2010,08,27,16,57,18.00
2010,08,27,16,58,18.00
2010,08,27,16,59,18.10
2010,08,27,17,00,18.10
2010,08,27,17,01,18.10
2010,08,27,17,02,18.00
2010,08,27,17,03,18.00
2010,08,27,17,04,17.90
2010,08,27,17,05,17.90
2010,08,27,17,06,17.90
2010,08,27,17,07,17.90
2010,08,27,17,08,17.80
2010,08,27,17,09,17.80
2010,08,27,17,10,17.80
2010,08,27,17,11,17.80
2010,08,27,17,12,17.80
2010,08,27,17,13,17.80
2010,08,27,17,14,17.80
2010,08,27,17,15,17.90
2010,08,27,17,16,17.90
2010,08,27,17,17,17.80
2010,08,27,17,18,17.80
2010,08,27,17,19,17.80
2010,08,27,17,20,17.80
2010,08,27,17,21,17.80
2010,08,27,17,22,17.70
2010,08,27,17,23,17.70
2010,08,27,17,24,17.60